User: anonymous   Login
Location: Camp Creek
(33.9000°N, 111.8167°W)
Time: 05:13:43
(UTC-07:00)
Language:

DELTA 2 R/B (1) - Orbit

View from above orbital plane
View from above orbital plane
View from above satellite
View from above satellite

Ground track
Ground track

The orbit data is extracted from the following two-line orbital elements,

1 27665U 03005C   14294.17556900  .00000146  00000-0  91694-4 0  1465
2 27665 039.5770 008.8338 0008074 084.6046 293.4786 14.28234583612206
Epoch (UTC): 21 October 2014 04:12:49
Eccentricity: 0.0008074
inclination: 39.5770°
perigee height: 792 km
apogee height: 803 km
right ascension of ascending node: 8.8338°
argument of perigee: 84.6046°
revolutions per day: 14.28234583
mean anomaly at epoch: 293.4786°
orbit number at epoch: 61220

The dashed part of the orbit path shows where the satellite is in the earth's shadow,  

DLR